SCP
0 0 0 0 0 0 0 0 0 0 0 0 0 0 0 0 0 0 0 0 0 0 0 0 0 0 0 0 0 0 0 0 0 0 0 0 0 0 0 0 0 0 0 0
0 0 0 0 0 0 0 0 0 0 0 0 0 0 0 0 0 0 0 0 0 0 0 0 0 0 0 0 0 0 0 0 0 0 0 0 0 0 0 0 0 0 0 0
0 0 0 0 0 0 0 0 0 0 0 0 0 0 0 0 0 0 0 0 0 0 0 0 0 0 0 0 0 0 0 0 0 0 0 0 0 0 0 0 0 0 0 0
0 0 0 0 0 0 0 0 0 0 0 0 0 0 0 0 0 0 0 0 0 0 0 0 0 0 0 0 0 0 0 0 0 0 0 0 0 0 0 0 0 0 0 0
0 0 0 0 0 0 0 0 0 0 0 0 0 0 0 0 0 0 0 0 0 0 0 0 0 0 0 0 0 0 0 0 0 0 0 0 0 0 0 0 0 0 0 0
0 0 0 0 0 0 0 0 0 0 0 0 0 0 0 0 0 0 0 0 0 0 0 0 0 0 0 0 0 0 0 0 0 0 0 0 0 0 0 0 0 0 0 0
0 0 0 0 0 0 0 0 0 0 0 0 0 0 0 0 0 0 0 0 0 0 0 0 0 0 0 0 0 0 0 0 0 0 0 0 0 0 0 0 0 0 0 0
0 0 0 0 0 0 0 0 0 0 0 0 0 0 0 0 0 0 0 0 0 0 0 0 0 0 0 0 0 0 0 0 0 0 0 0 0 0 0 0 0 0 0 0
0 0 0 0 0 0 0 0 0 0 0 0 0 0 0 0 0 0 0 0 0 0 0 0 0 0 0 0 0 0 0 0 0 0 0 0 0 0 0 0 0 0 0 0
0 0 0 0 0 0 0 0 0 0 0 0 0 0 0 0 0 0 0 0 0 0 0 0 0 0 0 0 0 0 0 0 0 0 0 0 0 0 0 0 0 0 0 0
0 0 0 0 0 0 0 0 0 0 0 0 0 0 0 0 0 0 0 0 0 0 0 0 0 0 0 0 0 0 0 0 0 0 0 0 0 0 0 0 0 0 0 0
0 0 0 0 0 0 0 0 0 0 0 0 0 0 0 0 0 0 0 0 0 0 0 0 0 0 0 0 0 0 0 0 0 0 0 0 0 0 0 0 0 0 0 0
0 0 0 0 0 0 0 0 0 0 0 0 0 0 0 0 0 0 0 0 0 0 0 0 0 0 0 0 0 0 0 0 0 0 0 0 0 0 0 0 0 0 0 0
0 0 0 0 0 0 0 0 0 0 0 0 0 0 0 0 0 0 0 0 0 0 0 0 0 0 0 0 0 0 0 0 0 0 0 0 0 0 0 0 0 0 0 0
0 0 0 0 0 0 0 0 0 0 0 0 0 0 0 0 0 0 0 0 0 0 0 0 0 0 0 0 0 0 0 0 0 0 0 0 0 0 0 0 0 0 0 0
0 0 0 0 0 0 0 0 0 0 0 0 0 0 0 0 0 0 0 0 0 0 0 0 0 0 0 0 0 0 0 0 0 0 0 0 0 0 0 0 0 0 0 0
0 0 0 0 0 0 0 0 0 0 0 0 0 0 0 0 0 0 0 0 0 0 0 0 0 0 0 0 0 0 0 0 0 0 0 0 0 0 0 0 0 0 0 0
0 0 0 0 0 0 0 0 0 0 0 0 0 0 0 0 0 0 0 0 0 0 0 0 0 0 0 0 0 0 0 0 0 0 0 0 0 0 0 0 0 0 0 0
0 0 0 0 0 0 0 0 0 0 0 0 0 0 0 0 0 0 0 0 0 0 0 0 0 0 0 0 0 0 0 0 0 0 0 0 0 0 0 0 0 0 0 0
0 0 0 0 0 0 0 0 0 0 0 0 0 0 0 0 0 0 0 0 0 0 0 0 0 0 0 0 0 0 0 0 0 0 0 0 0 0 0 0 0 0 0 0
0 0 0 0 0 0 0 0 0 0 0 0 0 0 0 0 0 0 0 0 0 0 0 0 0 0 0 0 0 0 0 0 0 0 0 0 0 0 0 0 0 0 0 0
0 0 0 0 0 0 0 0 0 0 0 0 0 0 0 0 0 0 0 0 0 0 0 0 0 0 0 0 0 0 0 0 0 0 0 0 0 0 0 0 0 0 0 0
0 0 0 0 0 0 0 0 0 0 0 0 0 0 0 0 0 0 0 0 0 0 0 0 0 0 0 0 0 0 0 0 0 0 0 0 0 0 0 0 0 0 0 0
0 0 0 0 0 0 0 0 0 0 0 0 0 0 0 0 0 0 0 0 0 0 0 0 0 0 0 0 0 0 0 0 0 0 0 0 0 0 0 0 0 0 0 0
0 0 0 0 0 0 0 0 0 0 0 0 0 0 0 0 0 0 0 0 0 0 0 0 0 0 0 0 0 0 0 0 0 0 0 0 0 0 0 0 0 0 0 0
0 0 0 0 0 0 0 0 0 0 0 0 0 0 0 0 0 0 0 0 0 0 0 0 0 0 0 0 0 0 0 0 0 0 0 0 0 0 0 0 0 0 0 0
0 0 0 0 0 0 0 0 0 0 0 0 0 0 0 0 0 0 0 0 0 0 0 0 0 0 0 0 0 0 0 0 0 0 0 0 0 0 0 0 0 0 0 0
Wind_Speed
3 4 5 4 4 4 4 4 4 3 3 5 6 5 6 6 7 7 6 7 6 5 4 5 5 5 6 6 6 6 7 8 8 7 7 7 7 7 7 8 8 7 7 7
2 4 5 4 4 4 4 3 3 2 3 5 3 3 4 5 6 6 6 7 7 6 4 4 4 4 4 5 5 5 6 6 6 7 7 7 7 7 7 7 7 7 7 6
2 3 3 1 5 4 3 3 5 4 4 3 1 2 3 3 4 5 6 6 7 6 4 2 2 2 3 3 4 5 5 5 6 6 7 6 7 7 6 6 6 6 6 6
3 3 3 6 3 6 5 4 5 4 4 4 4 2 3 2 2 4 5 6 6 6 4 3 1 1 1 2 3 4 4 5 5 5 6 6 6 6 5 4 4 4 5 5
4 3 1 2 4 5 5 3 4 3 3 4 3 2 4 3 1 2 3 3 4 4 3 2 1 0 1 2 2 3 4 4 4 4 5 5 6 5 4 4 4 4 4 6
3 3 6 8 6 5 5 2 4 4 4 5 4 2 4 4 2 3 3 4 4 5 4 4 3 1 2 1 1 2 2 2 3 3 4 5 5 4 4 4 4 5 6 6
3 3 6 4 6 7 5 8 6 6 6 6 5 5 5 3 2 3 3 4 5 5 5 5 3 0 1 1 2 2 1 3 3 4 4 4 5 4 5 5 6 6 6 6
4 3 7 6 8 8 9 4 7 7 6 5 4 3 1 0 2 3 4 5 5 5 6 6 4 1 1 2 3 1 1 3 4 4 4 5 5 5 5 6 6 6 5 6
8 8 6 8 8 7 6 7 6 7 6 5 4 2 1 1 2 3 4 4 4 4 6 6 5 3 2 4 2 1 3 4 4 4 5 5 5 5 5 5 4 5 5 5
2 4 4 5 4 5 6 7 7 7 6 6 5 3 2 1 1 3 4 4 4 5 6 6 6 5 4 4 2 3 4 4 4 4 4 4 4 4 4 4 4 4 5 5
3 3 3 4 5 7 7 7 7 6 6 6 5 3 3 2 0 1 2 3 3 4 4 5 5 5 6 4 3 3 4 4 4 3 3 4 4 3 3 3 2 2 2 3
9 9 9 10 9 8 9 9 9 8 6 5 5 4 4 3 1 0 1 2 4 5 4 4 4 5 6 5 2 3 3 3 3 3 3 3 3 2 4 3 5 5 5 4
7 7 7 7 10 10 10 10 9 8 8 6 4 4 4 2 2 1 0 2 3 4 3 3 3 5 6 5 2 3 3 3 2 3 3 3 2 2 0 3 4 5 6 7
6 8 4 6 9 10 9 10 8 7 7 7 5 4 3 3 2 1 1 2 2 3 2 2 3 5 6 6 3 2 3 3 3 2 3 3 3 2 2 1 1 2 4 6
6 6 7 7 9 9 8 8 8 7 7 6 6 5 5 4 3 3 3 3 2 3 3 2 3 5 6 5 2 1 2 2 2 2 2 3 3 3 3 2 1 1 2 4
6 5 7 8 10 10 9 8 9 8 8 7 6 6 6 5 4 3 3 2 2 3 2 1 3 5 5 4 2 1 1 3 3 2 2 2 3 3 3 3 2 1 1 1
9 8 8 9 11 10 10 9 9 9 8 8 8 7 6 5 3 2 3 2 1 1 1 1 3 4 4 3 2 1 1 2 2 1 2 3 3 4 4 3 3 2 1 1
11 11 10 13 12 10 10 9 9 9 8 9 8 7 7 6 5 5 4 2 1 1 1 2 3 3 3 3 3 2 2 2 2 2 2 2 3 4 4 4 4 3 2 1
8 9 9 10 11 10 10 9 8 8 8 8 8 9 8 7 5 5 4 3 2 3 4 4 3 2 1 3 3 2 2 2 2 2 3 4 4 4 4 4 4 4 4 3
7 8 9 9 9 9 9 9 8 8 7 8 9 8 7 6 6 5 5 4 4 5 5 4 2 0 1 3 4 2 2 3 2 2 2 3 4 4 4 5 5 5 4 4
6 7 8 9 9 9 9 10 9 9 8 9 9 10 9 7 6 5 4 4 5 5 5 4 2 2 2 3 4 3 3 3 3 2 3 4 4 4 4 5 5 5 5 4
2 3 5 6 7 7 7 8 9 9 9 9 9 8 7 7 6 5 5 6 6 7 5 3 3 5 5 4 2 3 4 4 3 3 3 4 4 5 5 5 5 5 5 5
4 2 1 4 6 6 6 7 8 9 10 10 10 9 8 8 6 5 5 5 5 8 6 5 6 9 8 3 3 3 4 4 4 4 3 4 4 5 5 6 5 5 5 5
6 6 4 2 1 3 4 5 7 7 9 9 10 10 8 6 5 5 5 6 8 9 6 7 10 11 8 3 3 4 4 4 4 4 4 3 4 4 5 5 5 5 5 6
6 6 6 5 2 2 4 4 5 5 6 6 7 8 7 7 7 6 6 6 9 9 6 8 12 11 6 3 4 4 4 4 4 4 4 3 4 4 4 5 5 6 5 6
5 4 4 3 2 2 2 2 3 4 4 5 5 6 6 5 6 5 5 6 8 8 7 5 5 6 4 4 5 5 5 5 5 4 4 4 4 4 4 5 6 6 6 6
5 4 4 4 4 3 2 1 2 3 4 5 6 6 6 6 6 6 6 6 5 6 5 5 5 5 5 5 5 5 5 4 4 4 4 4 4 4 5 6 5 5 5 6
Wind_Direction
162 159 128 125 111 87 92 136 141 212 256 279 295 304 314 323 332 349 354 0 4 360 357 358 4 7 12 15 15 21 29 31 27 26 30 36 41 43 46 51 55 56 62 55
145 158 132 124 140 124 118 140 158 206 258 256 277 306 321 329 343 359 1 4 3 2 5 5 11 14 18 19 15 23 32 28 23 28 32 35 38 43 49 49 48 54 57 54
188 172 112 175 192 172 164 178 175 196 229 235 253 293 304 327 358 3 360 358 358 358 357 357 1 22 25 20 26 33 30 24 23 28 33 30 36 41 42 42 44 46 43 41
129 136 236 249 210 160 162 191 204 214 218 205 205 247 291 299 359 355 353 354 350 347 349 346 359 5 27 40 42 37 27 23 24 32 35 31 36 37 35 35 40 39 36 32
116 148 269 265 197 172 168 214 214 194 189 179 180 30 337 308 312 328 336 340 332 332 332 341 337 255 101 55 36 33 23 21 25 39 40 36 32 26 23 34 35 32 28 29
122 158 229 237 203 159 116 228 224 165 158 163 131 80 278 287 313 339 339 336 336 338 348 351 323 264 114 81 14 358 357 27 47 54 50 42 32 26 26 40 41 39 36 32
173 218 254 239 149 117 156 227 197 160 154 151 168 200 237 275 349 353 340 336 347 352 348 334 320 303 130 254 275 277 351 53 60 58 58 52 43 37 41 46 44 40 37 28
170 204 251 189 141 175 210 176 149 149 156 157 182 203 210 46 23 9 351 345 352 353 342 336 342 7 329 293 277 287 77 76 66 55 59 60 53 42 37 41 43 32 25 18
185 211 231 178 185 197 157 149 154 155 160 153 154 158 141 102 25 1 354 349 346 351 348 351 1 24 1 311 305 107 104 101 93 74 60 57 58 51 40 35 40 31 24 19
206 254 201 186 170 154 154 155 160 155 151 147 152 150 132 143 359 354 349 345 346 356 0 353 354 11 2 343 26 112 122 124 119 98 77 59 51 47 49 37 35 32 27 16
220 229 172 218 193 166 151 145 146 147 147 153 152 149 156 177 259 349 350 340 349 355 349 345 355 3 359 2 49 100 123 131 131 123 112 87 64 46 48 32 27 31 12 360
211 198 178 204 199 170 154 161 159 154 157 161 161 166 165 186 213 215 348 346 352 350 346 344 357 357 354 358 50 113 123 134 144 147 139 125 111 67 25 9 8 18 17 13
193 175 179 186 179 172 165 168 166 164 168 174 176 171 162 181 197 190 333 347 343 334 335 351 2 355 349 350 27 119 145 152 150 155 161 164 166 157 102 337 342 354 4 13
152 130 145 163 175 174 166 167 166 168 173 173 172 168 157 157 176 205 274 292 321 344 355 9 8 352 342 345 20 103 138 153 149 155 165 176 185 181 168 158 359 341 348 8
165 158 164 163 159 165 161 156 160 172 173 173 173 171 169 173 199 237 265 280 337 4 357 5 2 344 340 349 16 102 149 169 167 166 171 165 157 149 145 143 112 20 359 3
170 143 141 147 163 170 166 168 173 183 184 185 186 190 191 193 208 243 264 261 311 320 307 314 340 330 336 357 12 12 244 218 186 172 168 156 151 147 149 148 140 114 45 348
153 165 169 173 176 179 180 179 181 185 188 192 198 195 190 192 208 247 255 263 290 280 199 226 315 328 348 20 21 330 297 277 229 184 190 182 171 170 169 166 168 175 218 255
187 184 178 178 180 182 186 184 184 185 190 198 191 181 182 187 203 223 236 243 87 121 233 265 311 351 25 30 20 353 315 288 258 226 212 197 183 176 171 175 182 186 209 217
185 177 177 179 181 181 185 188 191 193 192 182 177 182 190 195 200 210 210 197 206 247 255 265 326 23 17 349 1 340 317 303 284 249 215 200 185 176 176 181 190 195 194 192
184 182 180 183 184 182 189 192 188 189 188 178 176 180 189 201 200 200 200 212 224 224 230 241 261 240 255 312 337 325 315 305 295 267 223 208 200 195 191 190 192 193 193 191
179 184 184 186 190 193 192 189 186 190 188 178 178 187 195 202 199 189 190 229 253 228 223 237 222 214 245 285 319 313 306 301 292 270 236 221 215 208 201 196 194 193 192 191
138 183 193 192 191 198 200 192 189 188 183 186 191 189 189 198 201 200 211 216 233 218 211 226 226 231 246 276 296 300 298 294 288 272 247 225 213 209 206 201 200 199 194 190
35 31 216 207 201 203 198 194 193 187 185 188 190 189 192 197 190 188 226 232 224 219 208 221 231 242 256 268 278 290 294 294 291 278 254 234 219 210 206 203 201 198 193 192
28 21 2 327 193 181 201 211 202 197 195 194 195 193 187 190 211 217 214 219 208 208 206 224 237 249 260 255 267 279 285 287 289 285 269 247 229 217 209 203 200 199 196 192
21 17 16 22 24 259 238 226 210 208 202 206 210 205 199 192 198 210 204 214 220 215 217 232 241 250 250 244 255 264 268 268 274 282 274 258 238 223 213 205 200 197 195 195
5 359 352 340 310 290 277 231 217 217 206 212 221 216 210 207 208 205 202 211 218 211 209 221 232 244 239 241 250 255 258 270 284 288 280 269 248 232 220 213 207 201 199 199
342 345 346 346 342 341 330 280 245 241 224 216 223 220 211 206 202 203 205 207 208 209 212 218 222 228 234 240 246 249 250 255 263 270 274 269 256 240 228 220 213 206 201 199